Location: Aragnouet
(42.7874°N, 0.2165°E)
Time: 10:00:27
(UTC+00:00)

Terra - Pass Details

Date: 09 April 2020
Orbit: 701 x 703 km, 98.2° (Epoch: 05 June)

Event Time Altitude Azimuth Distance (km) Brightness Sun altitude
Exits shadow 22:09:04 34° 337° (NNW) 1,158 3.3 -33.2°
Drops below altitude 10° 22:11:46 10° 344° (NNW) 2,180 5.1 -33.5°
Sets 22:14:03 0° 346° (NNW) 3,103 6.1 -33.7°
